Cedar City, UT

6:37 PM MDT on July 29, 2016 (GMT -0600)
Cedar City Regional

Weather History for KCDC - February, 2013

Change the Weather History Date:

Saturday, February 23, 2013

  Actual Average Record
Temperature  
Mean Temperature 29 °F 35 °F  
Max Temperature 41 °F 48 °F 66 °F (1981)
Min Temperature 16 °F 22 °F 3 °F (1955)
Degree Days  
Heating Degree Days 36 30  
Month to date heating degree days 776 741  
Since 1 July heating degree days 4424 4416  
Cooling Degree Days 0 0  
Month to date cooling degree days 0 0  
Year to date cooling degree days 0 0  
Moisture  
Dew Point 20 °F    
Average Humidity 68    
Maximum Humidity 92    
Minimum Humidity 44    
Precipitation  
Precipitation 0.11 in 0.04 in 0.55 in (1987)
Month to date precipitation 0.96 0.79  
Year to date precipitation 1.94 1.65  
Sea Level Pressure  
Sea Level Pressure 29.91 in    
Wind  
Wind Speed 10 mph (West)    
Max Wind Speed 36 mph    
Max Gust Speed 44 mph    
Visibility 6 miles    
Events Fog , Snow    
T = Trace of Precipitation, MM = Missing Value Source: NWS Daily Summary

Daily Weather History Graph

Daily Weather History Graph

Search for Another Location

Airport or City:

Trip Planner

Search our weather history database for the weather conditions in past years. The results will help you decide how hot, cold, wet, or windy it might be!

Date:

Astronomy

Feb. 23, 2013 Rise Set
Actual Time 7:11 AM MST 6:20 PM MST
Civil Twilight 6:45 AM MST 6:46 PM MST
Nautical Twilight 6:14 AM MST 7:17 PM MST
Astronomical Twilight 5:44 AM MST 7:47 PM MST
Moon 4:35 PM MST (2/23) 5:34 AM MST (2/23)
Length of Visible Light 12h 01m
Length of Day
11h 08m
Waxing Gibbous, 95% of the Moon is Illuminated
Feb 23
Waxing Gibbous
Feb 25
Full
Mar 4
Last Quarter
Mar 11
New
Mar 19
First Quarter

Hourly Weather History & Observations

Time (MST) Temp. Windchill Dew Point Humidity Pressure Visibility Wind Dir Wind Speed Gust Speed Precip Events Conditions
12:53 AM 26.1 °F 21.9 °F 16.0 °F 66% 30.09 in 10.0 mi SSE 3.5 mph - N/A   Clear
1:53 AM 26.1 °F 18.4 °F 15.1 °F 63% 30.04 in 10.0 mi South 6.9 mph - N/A   Clear
2:53 AM 27.0 °F 20.5 °F 16.0 °F 63% 30.02 in 10.0 mi South 5.8 mph - N/A   Clear
3:53 AM 28.0 °F 24.2 °F 16.0 °F 61% 29.97 in 10.0 mi WSW 3.5 mph - N/A   Clear
4:53 AM 28.9 °F 21.9 °F 18.0 °F 64% 29.92 in 10.0 mi South 6.9 mph - N/A   Overcast
5:53 AM 30.0 °F 22.4 °F 16.0 °F 56% 29.95 in 10.0 mi SSE 8.1 mph - N/A   Mostly Cloudy
6:53 AM 28.9 °F 21.1 °F 17.1 °F 61% 29.92 in 10.0 mi South 8.1 mph - N/A   Partly Cloudy
7:53 AM 30.0 °F 19.5 °F 16.0 °F 56% 29.91 in 10.0 mi South 13.8 mph - N/A   Scattered Clouds
8:53 AM 30.9 °F 20.7 °F 17.1 °F 57% 29.86 in 10.0 mi SSW 13.8 mph 25.3 mph N/A   Clear
9:53 AM 37.0 °F 26.7 °F 18.0 °F 46% 29.78 in 10.0 mi SW 19.6 mph 31.1 mph N/A   Clear
10:53 AM 37.9 °F 26.8 °F 17.1 °F 43% 29.81 in 10.0 mi West 24.2 mph 43.7 mph N/A   Partly Cloudy
11:53 AM 37.0 °F 27.4 °F 17.1 °F 44% 29.87 in 10.0 mi SW 17.3 mph 26.5 mph N/A   Overcast
12:53 PM 37.0 °F 26.7 °F 17.1 °F 44% 29.86 in 10.0 mi WSW 19.6 mph 27.6 mph N/A   Overcast
1:15 PM 32.0 °F 20.5 °F 19.4 °F 60% 29.86 in 10.0 mi NW 18.4 mph 26.5 mph N/A   Overcast
1:39 PM 30.2 °F 17.4 °F 23.0 °F 75% 29.87 in 1.8 mi NW 20.7 mph 24.2 mph 0.00 in Snow Light Snow
1:48 PM 28.4 °F 18.0 °F 24.8 °F 86% 29.87 in 0.5 mi WNW 12.7 mph 21.9 mph 0.00 in Fog , Snow Snow
1:49 PM 28.0 °F 18.1 °F 24.1 °F 85% 29.92 in 0.5 mi WNW 11.5 mph 21.9 mph 0.00 in Fog , Snow Snow
2:04 PM 28.4 °F 21.2 °F 26.6 °F 93% 29.87 in 1.0 mi WSW 6.9 mph - 0.01 in Snow Light Snow
2:10 PM 28.4 °F 20.4 °F 26.6 °F 93% 29.88 in 1.5 mi SW 8.1 mph - 0.01 in Snow Light Snow
2:22 PM 28.4 °F 20.4 °F 26.6 °F 93% 29.87 in 2.5 mi South 8.1 mph - 0.01 in Snow Light Snow
2:26 PM 28.4 °F 19.7 °F 26.6 °F 93% 29.87 in 3.0 mi South 9.2 mph - 0.01 in Snow Light Snow
2:33 PM 28.4 °F 18.0 °F 24.8 °F 86% 29.86 in 5.0 mi SSE 12.7 mph - 0.01 in Snow Light Snow
2:53 PM 30.0 °F 21.1 °F 24.1 °F 79% 29.88 in 10.0 mi SE 10.4 mph - 0.01 in   Overcast
3:53 PM 34.0 °F 28.8 °F 21.9 °F 61% 29.86 in 10.0 mi ESE 5.8 mph - N/A   Scattered Clouds
4:53 PM 30.0 °F 19.5 °F 21.9 °F 72% 29.88 in 9.0 mi North 13.8 mph 23.0 mph 0.00 in Snow Light Snow
5:06 PM 30.2 °F 21.3 °F 23.0 °F 75% 29.86 in 2.5 mi North 10.4 mph 18.4 mph 0.00 in Snow Light Snow
5:09 PM 28.4 °F 19.7 °F 23.0 °F 80% 29.86 in 1.8 mi North 9.2 mph 18.4 mph 0.00 in Snow Light Snow
5:17 PM 26.6 °F 18.2 °F 23.0 °F 86% 29.86 in 0.5 mi North 8.1 mph - 0.01 in Fog , Snow Snow
5:27 PM 26.6 °F 17.5 °F 23.0 °F 86% 29.87 in 0.2 mi NNW 9.2 mph - 0.02 in Fog , Snow Heavy Snow
5:38 PM 26.6 °F 18.2 °F 23.0 °F 86% 29.87 in 0.5 mi NNE 8.1 mph - 0.02 in Fog , Snow Snow
5:53 PM 26.1 °F 16.2 °F 24.1 °F 92% 29.93 in 0.2 mi NNW 10.4 mph - 0.03 in Fog , Snow Heavy Snow
6:25 PM 24.8 °F 15.3 °F 21.2 °F 86% 29.90 in 0.5 mi North 9.2 mph - 0.05 in Fog , Snow Snow
6:40 PM 24.8 °F 15.3 °F 21.2 °F 86% 29.90 in 1.0 mi NNW 9.2 mph - 0.06 in Snow Light Snow
6:53 PM 24.1 °F 16.0 °F 21.9 °F 91% 29.96 in 0.8 mi NW 6.9 mph - 0.06 in Snow Light Snow
7:02 PM 24.8 °F 16.1 °F 21.2 °F 86% 29.91 in 1.8 mi WNW 8.1 mph - 0.01 in Snow Light Snow
7:23 PM 24.8 °F 20.5 °F 21.2 °F 86% 29.92 in 2.0 mi WNW 3.5 mph - 0.01 in Snow Light Snow
7:32 PM 23.0 °F - 21.2 °F 93% 29.92 in 7.0 mi Calm Calm - 0.01 in Snow Light Snow
7:42 PM 21.2 °F - 19.4 °F 93% 29.92 in 10.0 mi Calm Calm - 0.01 in   Overcast
8:53 PM 21.9 °F 15.7 °F 19.0 °F 89% 29.99 in 10.0 mi North 4.6 mph - N/A   Overcast
9:53 PM 21.9 °F 12.5 °F 15.1 °F 75% 29.99 in 10.0 mi North 8.1 mph - N/A   Mostly Cloudy
10:53 PM 19.0 °F 11.1 °F 12.9 °F 77% 30.00 in 10.0 mi NE 5.8 mph - N/A   Partly Cloudy
11:53 PM 17.1 °F 10.0 °F 10.0 °F 74% 30.02 in 10.0 mi NE 4.6 mph - N/A   Clear